COSMOS 1934

导读

COSMOS 1934(宇宙1934)是隶属于苏联/独联体(CIS)“宇宙”卫星系列的人造卫星,于1988年3月22日08:00发射升空。宇宙卫星系列多混编军用与科学任务,该卫星作为冷战末期苏联航天活动的组成部分,延续了系列任务特性,服务于空间探测或军事应用相关领域,是当时苏联航天体系持续组网部署空间资产的典型发射任务。

Basic Information
目录编号:
18985
目录名称:
COSMOS 1934
国际标识:
1988-023A
轨道中心:
EARTH
卫星名称:
COSMOS 1934
卫星全名:
--
卫星状态:
在轨 (已飞行14056 天)
发射日期:
1988-03-22 UTC
国别 :
俄罗斯(独联体) (CIS)
星等 :
--
This satellite is enrolled in the Space Conjunction Data Service (SCDS) and the current flight risk assessment level is: No High Risk
Orbit Information
数据来源 国际轨道数据 AOE轨道数据
星历时间 2026-09-15T08:25:42+0800
22小时前
查看轨道信息
2026-09-14T17:00:00+0800
1天前
查看轨道信息
半长轴 7353.797km 7353.785km
偏心率 0.0040005 0.0040343
轨道倾角 82.952° 82.953°
近地点辐角 235.902° 237.839°
升交点赤经 88.442° 88.919°
平近点角 123.834° 177.692°
近地点 946.241km 945.98km
远地点 1005.079km 1005.316km
周期 104.599分钟 104.599分钟
每日圈数 13.766875 13.766909
Detailed Information
使用方式:
暂无
2D Orbit Map
3D Orbit Map
Orbit Altitude Analysis Chart
Orbit Inclination Analysis Chart
Orbit Comprehensive Analysis Chart
View Comprehensive Chart
Miss Distance Evolution Trend with All Objects Subscribe to Flight Safety Assessment
Collision Probability Evolution Trend with All Objects Subscribe to Flight Safety Assessment